Kelso-Longview, WA
on Saturday, November 24, 2012

Saturday
Previous Day Next Day
Daily Summary
 ActualAverage (KSPB)Record (KSPB)
Temperature
Mean Temperature °F °F  
Max Temperature 50°F °F 57°F (2002)
Min Temperature 39°F °F 14°F (2010)
Degree Days
Heating Degree Days 20    
Month to date heating degree days  
Since 1 July heating degree days  
Cooling Degree Days 0    
Month to date cooling degree days  
Year to date cooling degree days  
Moisture
Dew Point 42°F   
Average Humidity 88    
Maximum Humidity 93    
Minimum Humidity 76    
Precipitation
Precipitation 0.01 in in 1.34 in (1999)
Month to date precipitation  
Year to date precipitation  
Wind
Wind Speed 0 mph   
Max Wind Speed 6 mph   
Max Gust Speed mph   
Visibility 7 miles   
Events     

Key: T is trace of precipitation, MM is missing value
Source: NWS Daily Summary
Time(PST)TemperatureDew PointHumidity Pressure Visibility Wind DirectionWind SpeedGust SpeedPrecipitationEvents Conditions
12:15 AM 48.2°F 46.4°F 93% 30.17 in 7.0 miles Calm Calm - N/A   Overcast
12:35 AM 48.2°F 46.4°F 93% 30.17 in 5.0 miles Calm Calm - N/A   Overcast
12:55 AM 48.2°F 46.4°F 93% 30.18 in 0.8 miles Calm Calm - N/A   Overcast
1:15 AM 48.2°F 46.4°F 93% 30.19 in 1.8 miles Calm Calm - N/A   Overcast
1:55 AM 48.2°F 44.6°F 87% 30.19 in 1.8 miles Calm Calm - N/A   Overcast
2:15 AM 48.2°F 44.6°F 87% 30.20 in 3.0 miles Calm Calm - N/A   Partly Cloudy
2:35 AM 46.4°F 44.6°F 93% 30.21 in 2.5 miles Calm Calm - N/A   Mostly Cloudy
2:55 AM 46.4°F 44.6°F 93% 30.21 in 5.0 miles Calm Calm - N/A   Mostly Cloudy
3:15 AM 48.2°F 44.6°F 87% 30.22 in 2.5 miles Calm Calm - N/A   Overcast
3:35 AM 48.2°F 44.6°F 87% 30.22 in 10.0 miles Calm Calm - 0.01 in   Overcast
3:55 AM 46.4°F 44.6°F 93% 30.22 in 9.0 miles Calm Calm - 0.01 in   Overcast
4:15 AM 46.4°F 44.6°F 93% 30.21 in 10.0 miles North 3.5 mph - N/A   Overcast
4:35 AM 46.4°F 44.6°F 93% 30.22 in 10.0 miles Calm Calm - N/A   Overcast
4:55 AM 46.4°F 42.8°F 87% 30.22 in 10.0 miles Calm Calm - N/A   Mostly Cloudy
5:15 AM 46.4°F 42.8°F 87% 30.22 in 10.0 miles Calm Calm - N/A   Scattered Clouds
5:35 AM 44.6°F 42.8°F 93% 30.22 in 10.0 miles Calm Calm - N/A   Partly Cloudy
5:55 AM 44.6°F 42.8°F 93% 30.23 in 5.0 miles Calm Calm - N/A   Mostly Cloudy
6:15 AM 44.6°F 42.8°F 93% 30.23 in 5.0 miles Calm Calm - N/A   Overcast
6:35 AM 44.6°F 41.0°F 87% 30.23 in 1.8 miles Calm Calm - N/A   Mostly Cloudy
6:55 AM 44.6°F 42.8°F 93% 30.23 in 1.5 miles Calm Calm - N/A   Overcast
7:15 AM 44.6°F 42.8°F 93% 30.23 in 8.0 miles Calm Calm - N/A   Overcast
7:35 AM 44.6°F 42.8°F 93% 30.23 in 8.0 miles Calm Calm - N/A   Overcast
7:55 AM 44.6°F 42.8°F 93% 30.25 in 8.0 miles Calm Calm - N/A   Overcast
8:15 AM 44.6°F 42.8°F 93% 30.25 in 1.5 miles Calm Calm - N/A   Overcast
8:35 AM 44.6°F 42.8°F 93% 30.25 in 10.0 miles Calm Calm - N/A   Overcast
8:55 AM 46.4°F 42.8°F 87% 30.26 in 10.0 miles Calm Calm - N/A   Overcast
9:15 AM 46.4°F 42.8°F 87% 30.26 in 8.0 miles Calm Calm - N/A   Overcast
9:35 AM 46.4°F 42.8°F 87% 30.25 in 5.0 miles WNW 3.5 mph - N/A   Overcast
9:55 AM 46.4°F 42.8°F 87% 30.26 in 5.0 miles WNW 3.5 mph - N/A   Overcast
10:15 AM 46.4°F 42.8°F 87% 30.26 in 7.0 miles Calm Calm - N/A   Overcast
10:35 AM 44.6°F 42.8°F 93% 30.26 in 5.0 miles Calm Calm - N/A   Overcast
10:55 AM 46.4°F 42.8°F 87% 30.26 in 5.0 miles Calm Calm - N/A   Overcast
11:15 AM 46.4°F 42.8°F 87% 30.26 in 7.0 miles Calm Calm - N/A   Overcast
11:35 AM 46.4°F 42.8°F 87% 30.25 in 4.0 miles Calm Calm - N/A   Overcast
11:55 AM 46.4°F 42.8°F 87% 30.25 in 5.0 miles Calm Calm - N/A   Overcast
12:15 PM 46.4°F 42.8°F 87% 30.25 in 5.0 miles Calm Calm - N/A   Overcast
12:35 PM 48.2°F 42.8°F 82% 30.24 in 8.0 miles Calm Calm - N/A   Overcast
12:55 PM 48.2°F 42.8°F 82% 30.24 in 10.0 miles Calm Calm - N/A   Overcast
1:15 PM 48.2°F 44.6°F 87% 30.24 in 10.0 miles Calm Calm - N/A   Overcast
1:35 PM 48.2°F 44.6°F 87% 30.24 in 10.0 miles Calm Calm - N/A   Mostly Cloudy
1:55 PM 50.0°F 42.8°F 76% 30.23 in 10.0 miles Calm Calm - N/A   Scattered Clouds
2:15 PM 50.0°F 42.8°F 76% 30.23 in 10.0 miles Calm Calm - N/A   Mostly Cloudy
2:35 PM 50.0°F 42.8°F 76% 30.23 in 10.0 miles Calm Calm - N/A   Mostly Cloudy
2:55 PM 50.0°F 42.8°F 76% 30.23 in 10.0 miles Calm Calm - N/A   Mostly Cloudy
3:15 PM 50.0°F 42.8°F 76% 30.23 in 10.0 miles North 5.8 mph - N/A   Overcast
3:35 PM 48.2°F 42.8°F 82% 30.23 in 7.0 miles NNW 5.8 mph - N/A   Overcast
3:55 PM 48.2°F 42.8°F 82% 30.23 in 8.0 miles Calm Calm - N/A   Overcast
4:15 PM 46.4°F 42.8°F 87% 30.23 in 10.0 miles Calm Calm - N/A   Overcast
4:35 PM 46.4°F 42.8°F 87% 30.23 in 10.0 miles Calm Calm - N/A   Mostly Cloudy
4:55 PM 46.4°F 42.8°F 87% 30.23 in 10.0 miles Calm Calm - N/A   Scattered Clouds
5:15 PM 44.6°F 42.8°F 93% 30.23 in 10.0 miles Calm Calm - N/A   Clear
5:35 PM 44.6°F 41.0°F 87% 30.23 in 10.0 miles Calm Calm - N/A   Mostly Cloudy
5:55 PM 42.8°F 39.2°F 87% 30.23 in 10.0 miles NNE 4.6 mph - N/A   Mostly Cloudy
6:15 PM 44.6°F 42.8°F 93% 30.23 in 9.0 miles North 4.6 mph - N/A   Mostly Cloudy
6:35 PM 44.6°F 41.0°F 87% 30.23 in 10.0 miles NNE 4.6 mph - N/A   Mostly Cloudy
6:55 PM 44.6°F 39.2°F 81% 30.23 in 10.0 miles Calm Calm - N/A   Mostly Cloudy
7:15 PM 44.6°F 39.2°F 81% 30.23 in 10.0 miles WNW 3.5 mph - N/A   Overcast
7:35 PM 42.8°F 39.2°F 87% 30.23 in 10.0 miles Calm Calm - N/A   Partly Cloudy
7:55 PM 42.8°F 39.2°F 87% 30.23 in 10.0 miles Calm Calm - N/A   Scattered Clouds
8:15 PM 41.0°F 37.4°F 87% 30.23 in 10.0 miles Calm Calm - N/A   Partly Cloudy
8:35 PM 39.2°F 35.6°F 87% 30.24 in 2.0 miles NNE 3.5 mph - N/A   Clear
8:55 PM 39.2°F 37.4°F 93% 30.24 in 6.0 miles Calm Calm - N/A   Clear
9:15 PM 39.2°F 37.4°F 93% 30.25 in 0.2 miles Calm Calm - N/A   Overcast
9:35 PM 41.0°F 39.2°F 93% 30.25 in 0.2 miles Calm Calm - N/A   Overcast
9:55 PM 41.0°F 39.2°F 93% 30.25 in 0.5 miles Calm Calm - N/A   Overcast
10:15 PM 41.0°F 39.2°F 93% 30.26 in 0.5 miles Calm Calm - N/A   Overcast
10:35 PM 41.0°F 39.2°F 93% 30.26 in 0.8 miles NNE 3.5 mph - N/A   Overcast
10:55 PM 41.0°F 39.2°F 93% 30.26 in 7.0 miles Calm Calm - N/A   Overcast
11:15 PM 41.0°F 39.2°F 93% 30.26 in 2.5 miles Calm Calm - N/A   Overcast
11:35 PM 41.0°F 37.4°F 87% 30.27 in 3.0 miles Calm Calm - N/A   Overcast
11:55 PM 41.0°F 37.4°F 87% 30.28 in 2.5 miles NNW 3.5 mph - N/A   Overcast
Moon Phase
Nov. 24 Nov. 28 Dec. 06 Dec. 13 Dec. 20
Sunrise:07:25 AM (PST) Moon Rise:02:26 PM (PST)11/24
Sunset:04:31 PM (PST) Moon Set:03:38 AM (PST)11/24

Copyright © 2014 The Weather Underground, Inc.